Roanoke, VA

4:30 AM EST on January 21, 2018 (GMT -0500)
Roanoke Regional-Woodrum

Weather History for KROA - November, 2010

Change the Weather History Date:

Thursday, November 25, 2010

  Actual Average Record
Temperature  
Mean Temperature 46 °F 45 °F  
Max Temperature 52 °F 55 °F 73 °F (1973)
Min Temperature 39 °F 35 °F 9 °F (1950)
Degree Days  
Heating Degree Days 19 20  
Month to date heating degree days 409 401  
Since 1 July heating degree days 583 698  
Cooling Degree Days 0 0  
Month to date cooling degree days 0 0  
Year to date cooling degree days 1677 1207  
Moisture  
Dew Point 37 °F    
Average Humidity 71    
Maximum Humidity 93    
Minimum Humidity 49    
Precipitation  
Precipitation 0.00 in 0.11 in 2.18 in (1964)
Month to date precipitation 1.76 2.84  
Year to date precipitation 39.72 37.75  
Snow  
Snow 0.00 in - - ()
Month to date snowfall 0.0  
Since 1 July snowfall 0.0  
Since 1 September snowfall 0.0  
Snow Depth 0.00 in    
Sea Level Pressure  
Sea Level Pressure 30.02 in    
Wind  
Wind Speed 6 mph (ESE)    
Max Wind Speed 15 mph    
Max Gust Speed 17 mph    
Visibility 9 miles    
Events      
T = Trace of Precipitation, MM = Missing Value Source: NWS Daily Summary

Daily Weather History Graph

Daily Weather History Graph

Search for Another Location

Airport or City:

Trip Planner

Search our weather history database for the weather conditions in past years. The results will help you decide how hot, cold, wet, or windy it might be!

Date:

Astronomy

Nov. 25, 2010 Rise Set
Actual Time 7:09 AM EST 5:04 PM EST
Civil Twilight 6:41 AM EST 5:32 PM EST
Nautical Twilight 6:09 AM EST 6:04 PM EST
Astronomical Twilight 5:37 AM EST 6:35 PM EST
Moon 8:59 PM EST (11/25) 10:38 AM EST (11/25)
Length of Visible Light 10h 51m
Length of Day
9h 54m
Waning Gibbous, 83% of the Moon is Illuminated
Nov 25
Waning Gibbous
Nov 28
Last Quarter
Dec 5
New
Dec 13
First Quarter
Dec 21
Full

Hourly Weather History & Observations

Time (EST) Temp. Windchill Dew Point Humidity Pressure Visibility Wind Dir Wind Speed Gust Speed Precip Events Conditions
12:54 AM 44.1 °F 39.5 °F 27.0 °F 51% 30.19 in 10.0 mi ESE 8.1 mph - N/A   Clear
1:54 AM 43.0 °F 41.3 °F 27.0 °F 53% 30.19 in 10.0 mi SSE 3.5 mph - N/A   Clear
2:54 AM 41.0 °F 37.1 °F 28.0 °F 60% 30.19 in 10.0 mi SSE 5.8 mph - N/A   Mostly Cloudy
3:54 AM 41.0 °F 36.4 °F 28.0 °F 60% 30.19 in 10.0 mi SSE 6.9 mph - N/A   Mostly Cloudy
4:54 AM 39.9 °F 32.9 °F 28.0 °F 63% 30.18 in 10.0 mi SE 11.5 mph - N/A   Mostly Cloudy
5:54 AM 39.0 °F 31.8 °F 28.0 °F 65% 30.19 in 10.0 mi SE 11.5 mph - N/A   Mostly Cloudy
6:54 AM 39.0 °F 32.8 °F 28.0 °F 65% 30.18 in 10.0 mi SE 9.2 mph - N/A   Mostly Cloudy
7:54 AM 39.0 °F 34.0 °F 28.9 °F 67% 30.18 in 10.0 mi SSE 6.9 mph - N/A   Mostly Cloudy
8:54 AM 41.0 °F 36.4 °F 30.0 °F 65% 30.17 in 10.0 mi ESE 6.9 mph - N/A   Mostly Cloudy
9:54 AM 42.1 °F 40.2 °F 30.9 °F 65% 30.16 in 10.0 mi ESE 3.5 mph - N/A   Overcast
10:54 AM 44.1 °F - 32.0 °F 63% 30.14 in 10.0 mi Calm Calm - N/A   Overcast
11:54 AM 45.0 °F 43.5 °F 33.1 °F 63% 30.11 in 10.0 mi East 3.5 mph - N/A   Overcast
12:54 PM 48.0 °F - 35.1 °F 61% 30.06 in 10.0 mi ESE 6.9 mph - N/A   Mostly Cloudy
1:33 PM 50.0 °F - 35.6 °F 58% 30.03 in 10.0 mi East 4.6 mph - N/A   Scattered Clouds
1:54 PM 50.0 °F - 37.0 °F 61% 30.02 in 10.0 mi East 9.2 mph - N/A   Partly Cloudy
2:54 PM 51.1 °F - 39.0 °F 63% 29.99 in 10.0 mi SE 10.4 mph - N/A   Partly Cloudy
3:54 PM 50.0 °F - 41.0 °F 71% 29.98 in 10.0 mi ESE 10.4 mph - N/A   Clear
4:54 PM 48.0 °F - 43.0 °F 83% 29.97 in 10.0 mi SE 9.2 mph - N/A   Partly Cloudy
5:54 PM 48.0 °F - 44.1 °F 86% 29.96 in 10.0 mi ESE 8.1 mph - N/A   Mostly Cloudy
6:54 PM 48.0 °F - 45.0 °F 89% 29.94 in 10.0 mi ESE 6.9 mph - N/A   Overcast
7:54 PM 48.0 °F - 45.0 °F 89% 29.91 in 10.0 mi Calm Calm - N/A   Overcast
8:36 PM 46.4 °F - 44.6 °F 93% 29.88 in 9.0 mi Calm Calm - N/A   Scattered Clouds
8:47 PM 46.4 °F 45.2 °F 44.6 °F 93% 29.87 in 9.0 mi East 3.5 mph - N/A   Mostly Cloudy
8:54 PM 46.9 °F - 45.0 °F 93% 29.88 in 8.0 mi East 3.5 mph - N/A   Scattered Clouds
9:54 PM 45.0 °F - 43.0 °F 93% 29.86 in 7.0 mi Calm Calm - N/A   Clear
10:54 PM 44.1 °F - 43.0 °F 96% 29.84 in 7.0 mi Calm Calm - N/A   Clear
11:01 PM 44.6 °F 42.2 °F 42.8 °F 93% 29.83 in 7.0 mi North 4.6 mph - N/A   Scattered Clouds
11:10 PM 46.4 °F - 44.6 °F 93% 29.83 in 7.0 mi Calm Calm - N/A   Mostly Cloudy
11:35 PM 46.4 °F 45.2 °F 44.6 °F 93% 29.81 in 7.0 mi North 3.5 mph - N/A   Partly Cloudy
11:54 PM 46.9 °F - 45.0 °F 93% 29.80 in 7.0 mi North 4.6 mph - N/A   Partly Cloudy